OneWeb SL0399

operational
NORAD ID: 50479 Int'l Des: 2021-132 Owner: ONEWEBN Country: UK Constellation: oneweb
LEOCIRCULARPOLARONEWEB_TYPE

About OneWeb SL0399

Description loading...

Live Position

Loading 3D Globe...

Upcoming Passes

Altitude History

Altitude vs Time

uPlot chart will show altitude changes over time

Two-Line Element Set

1 50479U 21132L 25296.90646467 .00000398 00000-0 10864-2 0 9991
2 50479 87.8829 68.1194 0001190 83.2330 276.8934 13.11416216184635
Epoch: Oct 23, 2025 • Age: 9 hours

Current Status

Altitude 1245.7 km
Velocity 7.23 km/s
Sub-Earth Point -73.83°S, 126.87°E
Launch Date Dec 27, 2021
Age 3.8 years
Type internet

Technical Details

Classification Payload
Mass 148.00 kg
Dry Mass 140.00 kg
Total Mass 148.00 kg
Length 1.30 m
Diameter 1.00 m
Span 5.00 m
Shape Trapezoid+2 pan
Manufacturer ONEWUS
Bus Type ARROW
Phase Status In Orbit
Owner/State ONEWEBN/UK

Large Constellations

Loading constellations...